Time,TemperatureF,DewpointF,PressureIn,WindDirection,WindDirectionDegrees,WindSpeedMPH,WindSpeedGustMPH,Humidity,HourlyPrecipIn,Conditions,Clouds,dailyrainin,SoftwareType,DateUTC
2013-11-30 00:01:00,29.9,22.6,30.69,NNW,345,5.0,10.0,74,0.00,,,0.00,Wunderground v.1.15,2013-11-30 05:01:00,
2013-11-30 00:02:00,29.9,22.6,30.69,NNW,335,5.0,10.0,74,0.00,,,0.00,Wunderground v.1.15,2013-11-30 05:02:00,
2013-11-30 00:04:00,29.9,22.3,30.69,North,355,5.0,10.0,73,0.00,,,0.00,Wunderground v.1.15,2013-11-30 05:04:00,
2013-11-30 00:06:00,29.9,22.3,30.69,NW,317,6.0,10.0,73,0.00,,,0.00,Wunderground v.1.15,2013-11-30 05:06:00,
2013-11-30 00:10:00,29.9,22.3,30.69,North,355,6.0,6.0,73,0.00,,,0.00,Wunderground v.1.15,2013-11-30 05:10:00,
2013-11-30 00:14:00,29.9,22.3,30.69,North,351,5.0,6.0,73,0.00,,,0.00,Wunderground v.1.15,2013-11-30 05:14:00,
2013-11-30 00:20:00,29.8,22.2,30.69,NNW,343,6.0,6.0,73,0.00,,,0.00,Wunderground v.1.15,2013-11-30 05:20:00,
2013-11-30 00:25:00,29.7,22.1,30.69,North,5,6.0,6.0,73,0.00,,,0.00,Wunderground v.1.15,2013-11-30 05:25:00,
2013-11-30 00:31:00,29.6,22.0,30.69,North,355,6.0,6.0,73,0.00,,,0.00,Wunderground v.1.15,2013-11-30 05:31:00,
2013-11-30 00:37:00,29.5,21.9,30.69,North,5,5.0,8.0,73,0.00,,,0.00,Wunderground v.1.15,2013-11-30 05:37:00,
2013-11-30 00:43:00,29.5,22.2,30.69,NNW,348,5.0,5.0,74,0.00,,,0.00,Wunderground v.1.15,2013-11-30 05:43:00,
2013-11-30 00:48:00,29.5,22.2,30.69,NNW,343,5.0,6.0,74,0.00,,,0.00,Wunderground v.1.15,2013-11-30 05:48:00,
2013-11-30 00:54:00,29.4,21.8,30.69,North,360,5.0,8.0,73,0.00,,,0.00,Wunderground v.1.15,2013-11-30 05:54:00,
2013-11-30 01:00:00,29.4,21.5,30.69,NNW,338,6.0,6.0,72,0.00,,,0.00,Wunderground v.1.15,2013-11-30 06:00:00,
2013-11-30 01:05:00,29.4,21.5,30.69,NNW,343,6.0,8.0,72,0.00,,,0.00,Wunderground v.1.15,2013-11-30 06:05:00,
2013-11-30 01:11:00,29.4,21.5,30.69,NW,321,6.0,6.0,72,0.00,,,0.00,Wunderground v.1.15,2013-11-30 06:11:00,
2013-11-30 01:16:00,29.3,21.7,30.69,North,9,6.0,9.0,73,0.00,,,0.00,Wunderground v.1.15,2013-11-30 06:16:00,
2013-11-30 01:22:00,29.3,21.4,30.69,NNW,336,6.0,7.0,72,0.00,,,0.00,Wunderground v.1.15,2013-11-30 06:22:00,
2013-11-30 01:27:00,29.3,21.4,30.69,North,9,7.0,8.0,72,0.00,,,0.00,Wunderground v.1.15,2013-11-30 06:27:00,
2013-11-30 01:33:00,29.2,21.3,30.69,North,11,6.0,7.0,72,0.00,,,0.00,Wunderground v.1.15,2013-11-30 06:33:00,
2013-11-30 01:38:00,29.1,21.2,30.69,NNW,338,6.0,8.0,72,0.00,,,0.00,Wunderground v.1.15,2013-11-30 06:38:00,
2013-11-30 01:44:00,29.0,21.1,30.69,NW,324,6.0,8.0,72,0.00,,,0.00,Wunderground v.1.15,2013-11-30 06:44:00,
2013-11-30 01:49:00,29.0,21.1,30.69,NNW,348,5.0,8.0,72,0.00,,,0.00,Wunderground v.1.15,2013-11-30 06:49:00,
2013-11-30 01:55:00,29.0,21.1,30.69,NNW,344,6.0,10.0,72,0.00,,,0.00,Wunderground v.1.15,2013-11-30 06:55:00,
2013-11-30 02:00:00,28.9,21.0,30.69,North,9,6.0,6.0,72,0.00,,,0.00,Wunderground v.1.15,2013-11-30 07:00:00,
2013-11-30 02:06:00,28.8,20.9,30.69,NNW,331,6.0,8.0,72,0.00,,,0.00,Wunderground v.1.15,2013-11-30 07:06:00,
2013-11-30 02:12:00,28.8,20.9,30.69,North,5,6.0,6.0,72,0.00,,,0.00,Wunderground v.1.15,2013-11-30 07:12:00,
2013-11-30 02:17:00,28.8,20.9,30.69,North,355,5.0,9.0,72,0.00,,,0.00,Wunderground v.1.15,2013-11-30 07:17:00,
2013-11-30 02:23:00,28.8,21.2,30.69,NNW,345,6.0,7.0,73,0.00,,,0.00,Wunderground v.1.15,2013-11-30 07:23:00,
2013-11-30 02:28:00,28.8,21.2,30.69,NNW,346,6.0,8.0,73,0.00,,,0.00,Wunderground v.1.15,2013-11-30 07:28:00,
2013-11-30 02:33:00,28.8,21.2,30.69,NNE,18,6.0,8.0,73,0.00,,,0.00,Wunderground v.1.15,2013-11-30 07:33:00,
2013-11-30 02:39:00,28.8,21.2,30.69,NNW,345,6.0,8.0,73,0.00,,,0.00,Wunderground v.1.15,2013-11-30 07:39:00,
2013-11-30 02:44:00,28.8,21.2,30.69,NNW,331,5.0,6.0,73,0.00,,,0.00,Wunderground v.1.15,2013-11-30 07:44:00,
2013-11-30 02:50:00,28.8,21.2,30.69,NNW,344,5.0,7.0,73,0.00,,,0.00,Wunderground v.1.15,2013-11-30 07:50:00,
2013-11-30 02:55:00,28.7,21.1,30.69,NNW,337,5.0,8.0,73,0.00,,,0.00,Wunderground v.1.15,2013-11-30 07:55:00,
2013-11-30 03:01:00,28.6,20.7,30.69,North,5,5.0,6.0,72,0.00,,,0.00,Wunderground v.1.15,2013-11-30 08:01:00,
2013-11-30 03:06:00,28.6,20.7,30.68,North,360,5.0,9.0,72,0.00,,,0.00,Wunderground v.1.15,2013-11-30 08:06:00,
2013-11-30 03:12:00,28.4,20.5,30.69,North,11,6.0,7.0,72,0.00,,,0.00,Wunderground v.1.15,2013-11-30 08:12:00,
2013-11-30 03:17:00,28.3,20.4,30.69,North,9,5.0,8.0,72,0.00,,,0.00,Wunderground v.1.15,2013-11-30 08:17:00,
2013-11-30 03:23:00,28.3,20.7,30.69,North,355,5.0,5.0,73,0.00,,,0.00,Wunderground v.1.15,2013-11-30 08:23:00,
2013-11-30 03:28:00,28.3,20.7,30.68,NNW,338,5.0,8.0,73,0.00,,,0.00,Wunderground v.1.15,2013-11-30 08:28:00,
2013-11-30 03:34:00,28.3,20.7,30.69,North,9,5.0,5.0,73,0.00,,,0.00,Wunderground v.1.15,2013-11-30 08:34:00,
2013-11-30 03:40:00,28.1,20.6,30.68,North,351,4.0,4.0,73,0.00,,,0.00,Wunderground v.1.15,2013-11-30 08:40:00,
2013-11-30 03:45:00,28.1,20.6,30.68,NNW,348,4.0,6.0,73,0.00,,,0.00,Wunderground v.1.15,2013-11-30 08:45:00,
2013-11-30 03:50:00,28.1,20.6,30.68,North,355,5.0,6.0,73,0.00,,,0.00,Wunderground v.1.15,2013-11-30 08:50:00,
2013-11-30 03:56:00,28.0,20.5,30.68,NNW,345,5.0,10.0,73,0.00,,,0.00,Wunderground v.1.15,2013-11-30 08:56:00,
2013-11-30 04:02:00,28.0,20.5,30.68,North,355,5.0,6.0,73,0.00,,,0.00,Wunderground v.1.15,2013-11-30 09:02:00,
2013-11-30 04:07:00,28.0,20.5,30.68,NW,321,5.0,8.0,73,0.00,,,0.00,Wunderground v.1.15,2013-11-30 09:07:00,
2013-11-30 04:13:00,27.9,20.4,30.68,NNE,19,6.0,10.0,73,0.00,,,0.00,Wunderground v.1.15,2013-11-30 09:13:00,
2013-11-30 04:18:00,27.9,20.4,30.68,NNW,327,6.0,10.0,73,0.00,,,0.00,Wunderground v.1.15,2013-11-30 09:18:00,
2013-11-30 04:24:00,27.8,20.3,30.68,NNW,342,5.0,8.0,73,0.00,,,0.00,Wunderground v.1.15,2013-11-30 09:24:00,
2013-11-30 04:29:00,27.8,20.3,30.68,North,350,5.0,8.0,73,0.00,,,0.00,Wunderground v.1.15,2013-11-30 09:29:00,
2013-11-30 04:35:00,27.6,20.1,30.68,NNW,329,5.0,7.0,73,0.00,,,0.00,Wunderground v.1.15,2013-11-30 09:35:00,
2013-11-30 04:40:00,27.6,20.1,30.68,North,355,6.0,6.0,73,0.00,,,0.00,Wunderground v.1.15,2013-11-30 09:40:00,
2013-11-30 04:46:00,27.6,20.4,30.68,NNW,342,6.0,6.0,74,0.00,,,0.00,Wunderground v.1.15,2013-11-30 09:46:00,
2013-11-30 04:52:00,27.5,20.3,30.67,North,351,5.0,5.0,74,0.00,,,0.00,Wunderground v.1.15,2013-11-30 09:52:00,
2013-11-30 04:57:00,27.5,20.3,30.68,North,9,6.0,7.0,74,0.00,,,0.00,Wunderground v.1.15,2013-11-30 09:57:00,
2013-11-30 05:02:00,27.5,20.3,30.68,North,360,5.0,7.0,74,0.00,,,0.00,Wunderground v.1.15,2013-11-30 10:02:00,
2013-11-30 05:08:00,27.4,20.2,30.68,North,5,5.0,8.0,74,0.00,,,0.00,Wunderground v.1.15,2013-11-30 10:08:00,
2013-11-30 05:14:00,27.4,20.2,30.68,North,10,6.0,6.0,74,0.00,,,0.00,Wunderground v.1.15,2013-11-30 10:14:00,
2013-11-30 05:19:00,27.4,20.2,30.68,NW,315,5.0,8.0,74,0.00,,,0.00,Wunderground v.1.15,2013-11-30 10:19:00,
2013-11-30 05:25:00,27.4,20.2,30.68,NNW,346,6.0,6.0,74,0.00,,,0.00,Wunderground v.1.15,2013-11-30 10:25:00,
2013-11-30 05:30:00,27.4,20.2,30.68,NNW,339,6.0,6.0,74,0.00,,,0.00,Wunderground v.1.15,2013-11-30 10:30:00,
2013-11-30 05:36:00,27.3,20.4,30.68,NW,311,5.0,6.0,75,0.00,,,0.00,Wunderground v.1.15,2013-11-30 10:36:00,
2013-11-30 05:41:00,27.3,20.4,30.68,North,5,5.0,5.0,75,0.00,,,0.00,Wunderground v.1.15,2013-11-30 10:41:00,
2013-11-30 05:47:00,27.3,20.4,30.68,North,360,5.0,8.0,75,0.00,,,0.00,Wunderground v.1.15,2013-11-30 10:47:00,
2013-11-30 05:52:00,27.4,20.5,30.68,NNW,348,6.0,6.0,75,0.00,,,0.00,Wunderground v.1.15,2013-11-30 10:52:00,
2013-11-30 05:58:00,27.3,20.4,30.68,NNW,329,5.0,7.0,75,0.00,,,0.00,Wunderground v.1.15,2013-11-30 10:58:00,
2013-11-30 06:04:00,27.2,20.3,30.68,NW,320,5.0,9.0,75,0.00,,,0.00,Wunderground v.1.15,2013-11-30 11:04:00,
2013-11-30 06:09:00,27.3,20.4,30.68,North,360,5.0,9.0,75,0.00,,,0.00,Wunderground v.1.15,2013-11-30 11:09:00,
2013-11-30 06:15:00,27.3,20.7,30.68,NNW,336,5.0,7.0,76,0.00,,,0.00,Wunderground v.1.15,2013-11-30 11:15:00,
2013-11-30 06:20:00,27.3,20.7,30.68,North,350,6.0,6.0,76,0.00,,,0.00,Wunderground v.1.15,2013-11-30 11:20:00,
2013-11-30 06:26:00,27.3,20.7,30.68,NNE,12,5.0,6.0,76,0.00,,,0.00,Wunderground v.1.15,2013-11-30 11:26:00,
2013-11-30 06:31:00,27.3,20.7,30.68,North,355,5.0,8.0,76,0.00,,,0.00,Wunderground v.1.15,2013-11-30 11:31:00,
2013-11-30 06:37:00,27.3,20.7,30.68,North,5,5.0,8.0,76,0.00,,,0.00,Wunderground v.1.15,2013-11-30 11:37:00,
2013-11-30 06:42:00,27.3,20.7,30.68,NNW,348,5.0,5.0,76,0.00,,,0.00,Wunderground v.1.15,2013-11-30 11:42:00,
2013-11-30 06:48:00,27.3,21.0,30.68,NNE,23,5.0,6.0,77,0.00,,,0.00,Wunderground v.1.15,2013-11-30 11:48:00,
2013-11-30 06:53:00,27.3,21.0,30.68,NW,311,5.0,6.0,77,0.00,,,0.00,Wunderground v.1.15,2013-11-30 11:53:00,
2013-11-30 06:59:00,27.3,21.0,30.69,North,355,4.0,7.0,77,0.00,,,0.00,Wunderground v.1.15,2013-11-30 11:59:00,
2013-11-30 07:04:00,27.3,21.0,30.68,NNW,338,4.0,8.0,77,0.00,,,0.00,Wunderground v.1.15,2013-11-30 12:04:00,
2013-11-30 07:10:00,27.3,21.3,30.68,NNW,333,5.0,5.0,78,0.00,,,0.00,Wunderground v.1.15,2013-11-30 12:10:00,
2013-11-30 07:16:00,27.3,21.3,30.68,North,5,4.0,6.0,78,0.00,,,0.00,Wunderground v.1.15,2013-11-30 12:16:00,
2013-11-30 07:21:00,27.3,21.3,30.68,NNW,336,4.0,4.0,78,0.00,,,0.00,Wunderground v.1.15,2013-11-30 12:21:00,
2013-11-30 07:27:00,27.4,21.7,30.68,NW,320,4.0,7.0,79,0.00,,,0.00,Wunderground v.1.15,2013-11-30 12:27:00,
2013-11-30 07:32:00,27.5,21.8,30.69,NNW,332,5.0,8.0,79,0.00,,,0.00,Wunderground v.1.15,2013-11-30 12:32:00,
2013-11-30 07:38:00,27.7,22.0,30.69,NNW,343,5.0,8.0,79,0.00,,,0.00,Wunderground v.1.15,2013-11-30 12:38:00,
2013-11-30 07:43:00,27.9,22.2,30.69,NNE,12,5.0,7.0,79,0.00,,,0.00,Wunderground v.1.15,2013-11-30 12:43:00,
2013-11-30 07:49:00,28.1,22.4,30.69,NNE,14,5.0,7.0,79,0.00,,,0.00,Wunderground v.1.15,2013-11-30 12:49:00,
2013-11-30 07:54:00,28.3,22.6,30.69,NW,323,5.0,5.0,79,0.00,,,0.00,Wunderground v.1.15,2013-11-30 12:54:00,
2013-11-30 08:00:00,28.5,22.8,30.69,NNW,336,4.0,4.0,79,0.00,,,0.00,Wunderground v.1.15,2013-11-30 13:00:00,
2013-11-30 08:05:00,28.7,23.0,30.69,NW,323,4.0,6.0,79,0.00,,,0.00,Wunderground v.1.15,2013-11-30 13:05:00,
2013-11-30 08:11:00,29.1,23.4,30.69,North,5,4.0,5.0,79,0.00,,,0.00,Wunderground v.1.15,2013-11-30 13:11:00,
2013-11-30 08:16:00,29.4,23.7,30.69,NNW,333,4.0,7.0,79,0.00,,,0.00,Wunderground v.1.15,2013-11-30 13:16:00,
2013-11-30 08:22:00,29.8,23.8,30.69,NNW,336,5.0,6.0,78,0.00,,,0.00,Wunderground v.1.15,2013-11-30 13:22:00,
2013-11-30 08:28:00,30.1,24.1,30.69,North,349,6.0,9.0,78,0.00,,,0.00,Wunderground v.1.15,2013-11-30 13:28:00,
2013-11-30 08:33:00,30.5,24.1,30.68,NNE,20,6.0,9.0,77,0.00,,,0.00,Wunderground v.1.15,2013-11-30 13:33:00,
2013-11-30 08:39:00,30.8,24.7,30.69,North,355,6.0,9.0,78,0.00,,,0.00,Wunderground v.1.15,2013-11-30 13:39:00,
2013-11-30 08:44:00,31.2,24.8,30.68,NNE,27,6.0,10.0,77,0.00,,,0.00,Wunderground v.1.15,2013-11-30 13:44:00,
2013-11-30 08:50:00,31.7,25.3,30.68,North,360,6.0,6.0,77,0.00,,,0.00,Wunderground v.1.15,2013-11-30 13:50:00,
2013-11-30 08:55:00,32.2,25.8,30.68,NW,319,5.0,7.0,77,0.00,,,0.00,Wunderground v.1.15,2013-11-30 13:55:00,
2013-11-30 09:01:00,32.7,26.3,30.68,North,5,5.0,7.0,77,0.00,,,0.00,Wunderground v.1.15,2013-11-30 14:01:00,
2013-11-30 09:06:00,33.1,26.7,30.68,NNE,25,6.0,9.0,77,0.00,,,0.00,Wunderground v.1.15,2013-11-30 14:06:00,
2013-11-30 09:11:00,33.4,26.6,30.68,NNW,330,6.0,6.0,76,0.00,,,0.00,Wunderground v.1.15,2013-11-30 14:11:00,
2013-11-30 09:17:00,33.7,26.9,30.68,North,355,5.0,6.0,76,0.00,,,0.00,Wunderground v.1.15,2013-11-30 14:17:00,
2013-11-30 09:22:00,34.1,27.3,30.68,North,9,5.0,6.0,76,0.00,,,0.00,Wunderground v.1.15,2013-11-30 14:22:00,
2013-11-30 09:28:00,34.5,27.7,30.68,North,360,5.0,8.0,76,0.00,,,0.00,Wunderground v.1.15,2013-11-30 14:28:00,
2013-11-30 09:34:00,35.2,28.4,30.68,NNE,13,6.0,6.0,76,0.00,,,0.00,Wunderground v.1.15,2013-11-30 14:34:00,
2013-11-30 09:39:00,35.7,28.9,30.68,NNE,19,6.0,8.0,76,0.00,,,0.00,Wunderground v.1.15,2013-11-30 14:39:00,
2013-11-30 09:45:00,36.3,29.5,30.68,North,9,5.0,7.0,76,0.00,,,0.00,Wunderground v.1.15,2013-11-30 14:45:00,
2013-11-30 09:50:00,36.9,29.7,30.68,North,360,5.0,6.0,75,0.00,,,0.00,Wunderground v.1.15,2013-11-30 14:50:00,
2013-11-30 09:56:00,37.2,29.7,30.68,North,5,6.0,9.0,74,0.00,,,0.00,Wunderground v.1.15,2013-11-30 14:56:00,
2013-11-30 10:01:00,37.4,29.9,30.68,NNE,14,6.0,8.0,74,0.00,,,0.00,Wunderground v.1.15,2013-11-30 15:01:00,
2013-11-30 10:07:00,37.6,30.1,30.67,North,5,6.0,8.0,74,0.00,,,0.00,Wunderground v.1.15,2013-11-30 15:07:00,
2013-11-30 10:12:00,37.7,30.2,30.67,North,5,6.0,6.0,74,0.00,,,0.00,Wunderground v.1.15,2013-11-30 15:12:00,
2013-11-30 10:18:00,38.0,30.8,30.67,North,360,6.0,8.0,75,0.00,,,0.00,Wunderground v.1.15,2013-11-30 15:18:00,
2013-11-30 10:24:00,38.3,30.7,30.67,NNE,17,6.0,8.0,74,0.00,,,0.00,Wunderground v.1.15,2013-11-30 15:24:00,
2013-11-30 10:29:00,38.6,31.0,30.67,NNE,21,7.0,8.0,74,0.00,,,0.00,Wunderground v.1.15,2013-11-30 15:29:00,
2013-11-30 10:35:00,38.9,31.3,30.66,NNW,330,6.0,9.0,74,0.00,,,0.00,Wunderground v.1.15,2013-11-30 15:35:00,
2013-11-30 10:40:00,39.3,31.7,30.66,NNW,342,5.0,5.0,74,0.00,,,0.00,Wunderground v.1.15,2013-11-30 15:40:00,
2013-11-30 10:46:00,39.8,32.2,30.66,ENE,63,5.0,8.0,74,0.00,,,0.00,Wunderground v.1.15,2013-11-30 15:46:00,
2013-11-30 10:51:00,40.5,32.2,30.65,NE,45,6.0,10.0,72,0.00,,,0.00,Wunderground v.1.15,2013-11-30 15:51:00,
2013-11-30 10:57:00,41.0,33.7,30.65,NE,55,8.0,10.0,75,0.00,,,0.00,Wunderground v.1.15,2013-11-30 15:57:00,
2013-11-30 11:02:00,41.3,32.2,30.65,NE,37,8.0,12.0,70,0.00,,,0.00,Wunderground v.1.15,2013-11-30 16:02:00,
2013-11-30 11:08:00,41.5,32.1,30.65,NE,40,8.0,12.0,69,0.00,,,0.00,Wunderground v.1.15,2013-11-30 16:08:00,
2013-11-30 11:14:00,41.7,32.3,30.64,ENE,62,8.0,12.0,69,0.00,,,0.00,Wunderground v.1.15,2013-11-30 16:14:00,
2013-11-30 11:19:00,41.8,32.4,30.64,NE,49,8.0,12.0,69,0.00,,,0.00,Wunderground v.1.15,2013-11-30 16:19:00,
2013-11-30 11:25:00,41.7,32.3,30.64,ENE,67,7.0,11.0,69,0.00,,,0.00,Wunderground v.1.15,2013-11-30 16:25:00,
2013-11-30 11:30:00,41.8,32.4,30.63,NE,52,7.0,12.0,69,0.00,,,0.00,Wunderground v.1.15,2013-11-30 16:30:00,
2013-11-30 11:36:00,41.8,32.0,30.63,NE,40,8.0,12.0,68,0.00,,,0.00,Wunderground v.1.15,2013-11-30 16:36:00,
2013-11-30 11:41:00,41.7,32.3,30.63,ENE,59,8.0,13.0,69,0.00,,,0.00,Wunderground v.1.15,2013-11-30 16:41:00,
2013-11-30 11:47:00,41.4,32.0,30.62,ENE,57,8.0,13.0,69,0.00,,,0.00,Wunderground v.1.15,2013-11-30 16:47:00,
2013-11-30 11:52:00,41.4,32.0,30.62,ENE,69,8.0,12.0,69,0.00,,,0.00,Wunderground v.1.15,2013-11-30 16:52:00,
2013-11-30 11:58:00,41.1,31.7,30.62,NE,53,8.0,12.0,69,0.00,,,0.00,Wunderground v.1.15,2013-11-30 16:58:00,
2013-11-30 12:03:00,41.1,32.1,30.62,ENE,57,7.0,10.0,70,0.00,,,0.00,Wunderground v.1.15,2013-11-30 17:03:00,
2013-11-30 12:09:00,41.3,32.2,30.61,ENE,69,6.0,10.0,70,0.00,,,0.00,Wunderground v.1.15,2013-11-30 17:09:00,
2013-11-30 12:14:00,41.1,31.7,30.61,NE,45,7.0,11.0,69,0.00,,,0.00,Wunderground v.1.15,2013-11-30 17:14:00,
2013-11-30 12:20:00,41.0,31.6,30.61,ENE,59,8.0,11.0,69,0.00,,,0.00,Wunderground v.1.15,2013-11-30 17:20:00,
2013-11-30 12:26:00,41.1,31.7,30.60,NE,51,7.0,11.0,69,0.00,,,0.00,Wunderground v.1.15,2013-11-30 17:26:00,
2013-11-30 12:31:00,41.1,31.7,30.60,NE,51,6.0,10.0,69,0.00,,,0.00,Wunderground v.1.15,2013-11-30 17:31:00,
2013-11-30 12:37:00,41.1,32.1,30.60,NE,55,7.0,10.0,70,0.00,,,0.00,Wunderground v.1.15,2013-11-30 17:37:00,
2013-11-30 12:42:00,41.1,32.1,30.59,ENE,66,7.0,8.0,70,0.00,,,0.00,Wunderground v.1.15,2013-11-30 17:42:00,
2013-11-30 12:48:00,41.2,32.2,30.59,ENE,72,6.0,14.0,70,0.00,,,0.00,Wunderground v.1.15,2013-11-30 17:48:00,
2013-11-30 12:53:00,41.1,32.1,30.59,ENE,61,7.0,8.0,70,0.00,,,0.00,Wunderground v.1.15,2013-11-30 17:53:00,
2013-11-30 12:59:00,41.0,31.6,30.58,NE,49,7.0,8.0,69,0.00,,,0.00,Wunderground v.1.15,2013-11-30 17:59:00,
2013-11-30 13:04:00,41.1,32.1,30.58,ENE,78,6.0,7.0,70,0.00,,,0.00,Wunderground v.1.15,2013-11-30 18:04:00,
2013-11-30 13:10:00,41.1,32.1,30.58,NNE,26,6.0,8.0,70,0.00,,,0.00,Wunderground v.1.15,2013-11-30 18:10:00,
2013-11-30 13:15:00,41.1,32.1,30.58,East,82,7.0,12.0,70,0.00,,,0.00,Wunderground v.1.15,2013-11-30 18:15:00,
2013-11-30 13:21:00,41.0,31.6,30.58,ENE,70,7.0,7.0,69,0.00,,,0.00,Wunderground v.1.15,2013-11-30 18:21:00,
2013-11-30 13:27:00,41.1,32.1,30.58,NE,44,6.0,8.0,70,0.00,,,0.00,Wunderground v.1.15,2013-11-30 18:27:00,
2013-11-30 13:32:00,41.3,31.9,30.58,NE,49,5.0,8.0,69,0.00,,,0.00,Wunderground v.1.15,2013-11-30 18:32:00,
2013-11-30 13:37:00,41.3,32.2,30.57,NE,42,6.0,9.0,70,0.00,,,0.00,Wunderground v.1.15,2013-11-30 18:37:00,
2013-11-30 13:43:00,41.3,31.9,30.57,East,94,7.0,10.0,69,0.00,,,0.00,Wunderground v.1.15,2013-11-30 18:43:00,
2013-11-30 13:49:00,41.4,32.3,30.57,NE,45,6.0,10.0,70,0.00,,,0.00,Wunderground v.1.15,2013-11-30 18:49:00,
2013-11-30 13:54:00,41.5,32.4,30.56,ENE,59,6.0,6.0,70,0.00,,,0.00,Wunderground v.1.15,2013-11-30 18:54:00,
2013-11-30 14:00:00,41.4,32.0,30.56,NE,41,6.0,8.0,69,0.00,,,0.00,Wunderground v.1.15,2013-11-30 19:00:00,
2013-11-30 14:05:00,41.3,31.9,30.56,NE,37,7.0,13.0,69,0.00,,,0.00,Wunderground v.1.15,2013-11-30 19:05:00,
2013-11-30 14:11:00,41.1,32.1,30.56,NNE,26,7.0,8.0,70,0.00,,,0.00,Wunderground v.1.15,2013-11-30 19:11:00,
2013-11-30 14:16:00,41.1,31.7,30.56,ENE,78,7.0,8.0,69,0.00,,,0.00,Wunderground v.1.15,2013-11-30 19:16:00,
2013-11-30 14:22:00,41.1,32.1,30.55,NNE,24,7.0,10.0,70,0.00,,,0.00,Wunderground v.1.15,2013-11-30 19:22:00,
2013-11-30 14:27:00,41.1,32.1,30.55,NE,50,7.0,11.0,70,0.00,,,0.00,Wunderground v.1.15,2013-11-30 19:27:00,
2013-11-30 14:33:00,41.1,32.1,30.55,NE,36,7.0,10.0,70,0.00,,,0.00,Wunderground v.1.15,2013-11-30 19:33:00,
2013-11-30 14:39:00,41.1,31.7,30.55,NE,37,6.0,10.0,69,0.00,,,0.00,Wunderground v.1.15,2013-11-30 19:39:00,
2013-11-30 14:44:00,41.1,32.1,30.54,NE,55,6.0,6.0,70,0.00,,,0.00,Wunderground v.1.15,2013-11-30 19:44:00,
2013-11-30 14:49:00,41.2,31.8,30.54,NNE,24,6.0,10.0,69,0.00,,,0.00,Wunderground v.1.15,2013-11-30 19:49:00,
2013-11-30 14:55:00,41.2,32.2,30.54,ENE,58,6.0,7.0,70,0.00,,,0.00,Wunderground v.1.15,2013-11-30 19:55:00,
2013-11-30 15:01:00,41.2,32.2,30.54,ENE,69,5.0,7.0,70,0.00,,,0.00,Wunderground v.1.15,2013-11-30 20:01:00,
2013-11-30 15:06:00,41.2,31.8,30.54,NE,42,6.0,8.0,69,0.00,,,0.00,Wunderground v.1.15,2013-11-30 20:06:00,
2013-11-30 15:12:00,41.1,32.1,30.54,NE,46,6.0,6.0,70,0.00,,,0.00,Wunderground v.1.15,2013-11-30 20:12:00,
2013-11-30 15:17:00,41.1,32.1,30.54,North,360,6.0,6.0,70,0.00,,,0.00,Wunderground v.1.15,2013-11-30 20:17:00,
2013-11-30 15:23:00,41.1,32.1,30.54,NE,44,4.0,7.0,70,0.00,,,0.00,Wunderground v.1.15,2013-11-30 20:23:00,
2013-11-30 15:28:00,41.1,32.1,30.53,NNE,32,5.0,7.0,70,0.00,,,0.00,Wunderground v.1.15,2013-11-30 20:28:00,
2013-11-30 15:34:00,41.0,32.0,30.53,NE,46,6.0,8.0,70,0.00,,,0.00,Wunderground v.1.15,2013-11-30 20:34:00,
2013-11-30 15:39:00,40.9,31.9,30.53,ENE,58,5.0,8.0,70,0.00,,,0.00,Wunderground v.1.15,2013-11-30 20:39:00,
2013-11-30 15:45:00,40.9,32.2,30.53,North,360,5.0,7.0,71,0.00,,,0.00,Wunderground v.1.15,2013-11-30 20:45:00,
2013-11-30 15:50:00,40.9,32.2,30.53,ENE,62,5.0,5.0,71,0.00,,,0.00,Wunderground v.1.15,2013-11-30 20:50:00,
2013-11-30 15:56:00,40.8,32.1,30.53,NE,37,5.0,10.0,71,0.00,,,0.00,Wunderground v.1.15,2013-11-30 20:56:00,
2013-11-30 16:01:00,40.8,32.1,30.53,NNE,32,5.0,5.0,71,0.00,,,0.00,Wunderground v.1.15,2013-11-30 21:01:00,
2013-11-30 16:07:00,40.7,32.0,30.52,NE,40,4.0,7.0,71,0.00,,,0.00,Wunderground v.1.15,2013-11-30 21:07:00,
2013-11-30 16:13:00,40.7,32.0,30.52,NNE,14,4.0,5.0,71,0.00,,,0.00,Wunderground v.1.15,2013-11-30 21:13:00,
2013-11-30 16:18:00,40.6,32.3,30.52,NE,43,4.0,6.0,72,0.00,,,0.00,Wunderground v.1.15,2013-11-30 21:18:00,
2013-11-30 16:24:00,40.5,32.2,30.52,NNE,32,4.0,8.0,72,0.00,,,0.00,Wunderground v.1.15,2013-11-30 21:24:00,
2013-11-30 16:29:00,40.5,32.5,30.51,NNW,347,4.0,8.0,73,0.00,,,0.00,Wunderground v.1.15,2013-11-30 21:29:00,
2013-11-30 16:35:00,40.3,32.3,30.51,North,5,4.0,5.0,73,0.00,,,0.00,Wunderground v.1.15,2013-11-30 21:35:00,
2013-11-30 16:40:00,40.2,32.2,30.51,North,5,4.0,4.0,73,0.00,,,0.00,Wunderground v.1.15,2013-11-30 21:40:00,
2013-11-30 16:46:00,40.1,32.5,30.51,North,355,3.0,4.0,74,0.00,,,0.00,Wunderground v.1.15,2013-11-30 21:46:00,
2013-11-30 16:51:00,40.0,32.4,30.51,WNW,302,3.0,5.0,74,0.00,,,0.00,Wunderground v.1.15,2013-11-30 21:51:00,
2013-11-30 16:57:00,39.8,32.5,30.51,North,360,4.0,7.0,75,0.00,,,0.00,Wunderground v.1.15,2013-11-30 21:57:00,
2013-11-30 17:04:00,39.5,32.6,30.50,North,5,5.0,5.0,76,0.00,,,0.00,Wunderground v.1.15,2013-11-30 22:04:00,
2013-11-30 17:09:00,39.3,32.4,30.50,North,350,5.0,5.0,76,0.00,,,0.00,Wunderground v.1.15,2013-11-30 22:09:00,
2013-11-30 17:15:00,39.1,32.5,30.50,NNW,329,5.0,7.0,77,0.00,,,0.00,Wunderground v.1.15,2013-11-30 22:15:00,
2013-11-30 17:20:00,38.9,32.3,30.50,NW,311,5.0,5.0,77,0.00,,,0.00,Wunderground v.1.15,2013-11-30 22:20:00,
2013-11-30 17:26:00,38.7,32.1,30.50,NNW,328,4.0,5.0,77,0.00,,,0.00,Wunderground v.1.15,2013-11-30 22:26:00,
2013-11-30 17:31:00,38.6,32.0,30.50,NNW,338,4.0,4.0,77,0.00,,,0.00,Wunderground v.1.15,2013-11-30 22:31:00,
2013-11-30 17:37:00,38.5,32.2,30.50,North,5,3.0,6.0,78,0.00,,,0.00,Wunderground v.1.15,2013-11-30 22:37:00,
2013-11-30 17:42:00,38.5,32.2,30.49,North,350,3.0,3.0,78,0.00,,,0.00,Wunderground v.1.15,2013-11-30 22:42:00,
2013-11-30 17:48:00,38.4,32.1,30.49,North,5,4.0,6.0,78,0.00,,,0.00,Wunderground v.1.15,2013-11-30 22:48:00,
2013-11-30 17:53:00,38.4,32.1,30.48,North,355,4.0,6.0,78,0.00,,,0.00,Wunderground v.1.15,2013-11-30 22:53:00,
2013-11-30 17:59:00,38.4,31.8,30.48,NW,316,4.0,7.0,77,0.00,,,0.00,Wunderground v.1.15,2013-11-30 22:59:00,
2013-11-30 18:05:00,38.5,32.2,30.48,NW,305,3.0,4.0,78,0.00,,,0.00,Wunderground v.1.15,2013-11-30 23:05:00,
2013-11-30 18:10:00,38.6,32.3,30.48,NW,309,3.0,3.0,78,0.00,,,0.00,Wunderground v.1.15,2013-11-30 23:10:00,
2013-11-30 18:16:00,38.7,32.4,30.48,NNE,32,4.0,9.0,78,0.00,,,0.00,Wunderground v.1.15,2013-11-30 23:16:00,
2013-11-30 18:21:00,38.8,32.5,30.47,NNW,332,4.0,4.0,78,0.00,,,0.00,Wunderground v.1.15,2013-11-30 23:21:00,
2013-11-30 18:27:00,38.8,32.5,30.47,NW,315,2.0,4.0,78,0.00,,,0.00,Wunderground v.1.15,2013-11-30 23:27:00,
2013-11-30 18:32:00,38.8,32.5,30.46,North,11,1.0,3.0,78,0.00,,,0.00,Wunderground v.1.15,2013-11-30 23:32:00,
2013-11-30 18:38:00,38.9,32.6,30.46,NNE,32,3.0,7.0,78,0.00,,,0.00,Wunderground v.1.15,2013-11-30 23:38:00,
2013-11-30 18:43:00,38.8,32.2,30.46,NE,53,5.0,7.0,77,0.00,,,0.00,Wunderground v.1.15,2013-11-30 23:43:00,
2013-11-30 18:49:00,38.8,32.5,30.46,NNE,31,4.0,7.0,78,0.00,,,0.00,Wunderground v.1.15,2013-11-30 23:49:00,
2013-11-30 18:55:00,38.8,32.5,30.45,NNW,348,4.0,6.0,78,0.00,,,0.00,Wunderground v.1.15,2013-11-30 23:55:00,
2013-11-30 19:00:00,38.8,32.5,30.45,NNE,22,3.0,3.0,78,0.00,,,0.00,Wunderground v.1.15,2013-12-01 00:00:00,
2013-11-30 19:05:00,38.8,32.5,30.45,NNW,334,2.0,3.0,78,0.00,,,0.00,Wunderground v.1.15,2013-12-01 00:05:00,
2013-11-30 19:11:00,38.8,32.8,30.45,NW,319,2.0,3.0,79,0.00,,,0.00,Wunderground v.1.15,2013-12-01 00:11:00,
2013-11-30 19:17:00,38.8,32.8,30.45,NW,325,3.0,3.0,79,0.00,,,0.00,Wunderground v.1.15,2013-12-01 00:17:00,
2013-11-30 19:22:00,38.8,32.8,30.44,NNW,329,3.0,3.0,79,0.00,,,0.00,Wunderground v.1.15,2013-12-01 00:22:00,
2013-11-30 19:28:00,38.9,32.9,30.44,NNW,347,3.0,3.0,79,0.00,,,0.00,Wunderground v.1.15,2013-12-01 00:28:00,
2013-11-30 19:33:00,38.9,33.3,30.44,North,9,4.0,8.0,80,0.00,,,0.00,Wunderground v.1.15,2013-12-01 00:33:00,
2013-11-30 19:39:00,38.8,33.2,30.43,North,360,5.0,8.0,80,0.00,,,0.00,Wunderground v.1.15,2013-12-01 00:39:00,
2013-11-30 19:44:00,38.7,33.1,30.43,NNW,339,5.0,6.0,80,0.00,,,0.00,Wunderground v.1.15,2013-12-01 00:44:00,
2013-11-30 19:50:00,38.6,33.0,30.43,NW,326,4.0,4.0,80,0.00,,,0.00,Wunderground v.1.15,2013-12-01 00:50:00,
2013-11-30 19:55:00,38.5,32.9,30.43,NNW,342,4.0,5.0,80,0.00,,,0.00,Wunderground v.1.15,2013-12-01 00:55:00,
2013-11-30 20:01:00,38.4,33.1,30.42,North,360,4.0,5.0,81,0.00,,,0.00,Wunderground v.1.15,2013-12-01 01:01:00,
2013-11-30 20:07:00,38.3,33.0,30.42,North,11,5.0,7.0,81,0.00,,,0.00,Wunderground v.1.15,2013-12-01 01:07:00,
2013-11-30 20:13:00,38.2,32.9,30.42,North,360,5.0,6.0,81,0.00,,,0.00,Wunderground v.1.15,2013-12-01 01:13:00,
2013-11-30 20:19:00,38.2,33.2,30.42,NNE,15,4.0,6.0,82,0.00,,,0.00,Wunderground v.1.15,2013-12-01 01:19:00,
2013-11-30 20:24:00,38.2,33.2,30.42,North,5,3.0,4.0,82,0.00,,,0.00,Wunderground v.1.15,2013-12-01 01:24:00,
2013-11-30 20:30:00,38.2,33.2,30.42,North,349,2.0,2.0,82,0.00,,,0.00,Wunderground v.1.15,2013-12-01 01:30:00,
2013-11-30 20:35:00,38.3,33.6,30.41,North,355,2.0,5.0,83,0.00,,,0.00,Wunderground v.1.15,2013-12-01 01:35:00,
2013-11-30 20:41:00,38.3,33.6,30.41,NNE,13,2.0,3.0,83,0.00,,,0.00,Wunderground v.1.15,2013-12-01 01:41:00,
2013-11-30 20:47:00,38.4,34.0,30.41,NNW,348,2.0,6.0,84,0.00,,,0.00,Wunderground v.1.15,2013-12-01 01:47:00,
2013-11-30 20:49:00,38.4,34.0,30.41,North,5,3.0,6.0,84,0.00,,,0.00,Wunderground v.1.15,2013-12-01 01:49:00,
2013-11-30 20:54:00,38.4,34.0,30.41,North,355,2.0,3.0,84,0.00,,,0.00,Wunderground v.1.15,2013-12-01 01:54:00,
2013-11-30 21:00:00,38.5,34.1,30.41,North,10,3.0,6.0,84,0.00,,,0.00,Wunderground v.1.15,2013-12-01 02:00:00,
2013-11-30 21:05:00,38.6,34.2,30.40,North,360,4.0,6.0,84,0.00,,,0.00,Wunderground v.1.15,2013-12-01 02:05:00,
2013-11-30 21:11:00,38.7,34.3,30.40,North,360,4.0,4.0,84,0.00,,,0.00,Wunderground v.1.15,2013-12-01 02:11:00,
2013-11-30 21:16:00,38.7,34.3,30.40,NNE,21,4.0,4.0,84,0.00,,,0.00,Wunderground v.1.15,2013-12-01 02:16:00,
2013-11-30 21:22:00,38.8,34.7,30.40,NNE,13,4.0,4.0,85,0.00,,,0.00,Wunderground v.1.15,2013-12-01 02:22:00,
2013-11-30 21:28:00,38.9,34.8,30.40,NNW,344,3.0,4.0,85,0.00,,,0.00,Wunderground v.1.15,2013-12-01 02:28:00,
2013-11-30 21:34:00,39.1,35.3,30.40,North,355,3.0,4.0,86,0.00,,,0.00,Wunderground v.1.15,2013-12-01 02:34:00,
2013-11-30 21:40:00,39.2,35.4,30.39,North,5,3.0,4.0,86,0.00,,,0.00,Wunderground v.1.15,2013-12-01 02:40:00,
2013-11-30 21:45:00,39.3,35.5,30.39,North,355,3.0,4.0,86,0.00,,,0.00,Wunderground v.1.15,2013-12-01 02:45:00,
2013-11-30 21:51:00,39.4,35.6,30.39,NNW,327,3.0,4.0,86,0.00,,,0.00,Wunderground v.1.15,2013-12-01 02:51:00,
2013-11-30 21:56:00,39.5,36.0,30.38,NNW,343,3.0,4.0,87,0.00,,,0.00,Wunderground v.1.15,2013-12-01 02:56:00,
2013-11-30 22:02:00,39.7,36.1,30.38,North,350,2.0,3.0,87,0.00,,,0.00,Wunderground v.1.15,2013-12-01 03:02:00,
2013-11-30 22:07:00,39.9,36.3,30.38,NNW,337,2.0,3.0,87,0.00,,,0.00,Wunderground v.1.15,2013-12-01 03:07:00,
2013-11-30 22:13:00,40.0,36.4,30.37,NNW,344,2.0,3.0,87,0.00,,,0.00,Wunderground v.1.15,2013-12-01 03:13:00,
2013-11-30 22:18:00,40.0,36.4,30.37,NNW,338,2.0,3.0,87,0.00,,,0.00,Wunderground v.1.15,2013-12-01 03:18:00,
2013-11-30 22:24:00,40.1,36.5,30.37,NNE,27,3.0,5.0,87,0.00,,,0.00,Wunderground v.1.15,2013-12-01 03:24:00,
2013-11-30 22:30:00,40.2,36.6,30.37,North,355,3.0,3.0,87,0.00,,,0.00,Wunderground v.1.15,2013-12-01 03:30:00,
2013-11-30 22:35:00,40.2,36.6,30.37,NNW,334,2.0,3.0,87,0.00,,,0.00,Wunderground v.1.15,2013-12-01 03:35:00,
2013-11-30 22:41:00,40.2,36.6,30.36,NNW,336,2.0,3.0,87,0.00,,,0.00,Wunderground v.1.15,2013-12-01 03:41:00,
2013-11-30 22:46:00,40.2,36.9,30.36,NNW,344,2.0,4.0,88,0.00,,,0.00,Wunderground v.1.15,2013-12-01 03:46:00,
2013-11-30 22:52:00,40.3,37.0,30.36,NNE,13,3.0,4.0,88,0.00,,,0.00,Wunderground v.1.15,2013-12-01 03:52:00,
2013-11-30 22:57:00,40.3,37.0,30.36,NNW,346,3.0,4.0,88,0.00,,,0.00,Wunderground v.1.15,2013-12-01 03:57:00,
2013-11-30 23:03:00,40.3,37.0,30.35,NW,322,1.0,2.0,88,0.00,,,0.00,Wunderground v.1.15,2013-12-01 04:03:00,
2013-11-30 23:08:00,40.3,37.0,30.35,North,360,1.0,2.0,88,0.00,,,0.00,Wunderground v.1.15,2013-12-01 04:08:00,
2013-11-30 23:14:00,40.2,36.9,30.35,NNW,339,2.0,4.0,88,0.00,,,0.00,Wunderground v.1.15,2013-12-01 04:14:00,
2013-11-30 23:19:00,40.1,36.8,30.35,NW,317,2.0,4.0,88,0.00,,,0.00,Wunderground v.1.15,2013-12-01 04:19:00,
2013-11-30 23:25:00,40.0,36.4,30.34,NNW,327,2.0,4.0,87,0.00,,,0.00,Wunderground v.1.15,2013-12-01 04:25:00,
2013-11-30 23:30:00,39.8,36.2,30.34,NNW,343,3.0,3.0,87,0.00,,,0.00,Wunderground v.1.15,2013-12-01 04:30:00,
2013-11-30 23:36:00,39.7,36.1,30.34,NNW,343,2.0,3.0,87,0.00,,,0.00,Wunderground v.1.15,2013-12-01 04:36:00,
2013-11-30 23:42:00,39.6,36.0,30.34,NW,326,1.0,2.0,87,0.00,,,0.00,Wunderground v.1.15,2013-12-01 04:42:00,
2013-11-30 23:47:00,39.5,36.0,30.33,NNW,327,1.0,3.0,87,0.00,,,0.00,Wunderground v.1.15,2013-12-01 04:47:00,
2013-11-30 23:53:00,39.3,36.0,30.33,NNW,327,1.0,3.0,88,0.00,,,0.00,Wunderground v.1.15,2013-12-01 04:53:00,
2013-11-30 23:58:00,39.3,35.8,30.33,NW,315,1.0,3.0,87,0.00,,,0.00,Wunderground v.1.15,2013-12-01 04:58:00,